Wind_Speed
108 109 111 112 113 115 117 118 119 120 121 121 121 121 120 119 118 117 116 115 114 114 115 115 116 117 119 120 121 122 124 125 126 126 127 127 127 127 126 126 125 124 122 120 118 116 114 112 111 109 107 106 105 104 103 102 102 101 100 100 99 99 98 98 97 97 96 95 95 94 93 92 91 90 90 89 89 88 88 88 88 88 88 88 88 88
110 112 113 114 116 117 119 120 121 121 122 122 121 120 118 117 116 115 115 114 115 115 116 117 118 120 121 122 124 125 126 127 127 128 128 127 127 126 124 123 121 120 118 116 114 112 110 108 106 104 103 102 101 101 100 99 98 98 98 97 97 96 96 95 95 94 94 93 92 91 90 90 89 88 87 86 86 86 85 85 85 85 86 86 86 86
113 114 116 117 118 119 121 122 122 121 121 121 119 118 117 116 115 115 115 115 116 117 119 120 121 122 124 125 126 127 128 128 128 128 127 126 125 123 121 119 117 115 113 111 109 107 105 103 102 101 100 99 98 98 97 96 95 95 95 94 94 94 93 93 92 92 91 90 90 89 88 87 86 85 85 84 84 83 83 83 83 83 84 84 84 84
115 117 118 119 120 121 122 122 122 121 120 119 118 116 116 115 115 116 116 117 119 120 121 122 124 125 126 127 128 128 129 129 128 127 125 123 121 119 117 115 113 111 109 107 105 103 101 100 99 98 97 96 95 94 94 93 93 92 92 92 91 91 91 90 90 89 89 88 87 86 85 84 84 83 82 82 82 82 82 82 82 82 82 82 82 82
117 119 120 121 122 122 122 121 121 120 119 117 116 116 115 116 116 117 118 120 121 122 124 125 126 127 128 129 129 129 129 128 126 124 121 119 116 114 112 110 109 107 105 102 101 99 98 96 95 95 94 93 92 91 91 90 90 90 89 89 89 89 88 88 87 87 86 85 85 84 83 82 81 81 80 80 80 80 80 80 80 80 80 80 81 81
119 120 121 122 122 122 121 120 119 118 117 116 116 116 116 117 118 119 121 122 123 125 126 127 128 129 129 130 129 128 127 124 122 119 116 114 111 110 108 106 105 103 101 99 97 95 94 93 92 91 90 90 89 88 88 88 87 87 87 87 87 86 86 86 85 84 83 83 82 81 81 80 79 79 78 78 78 78 78 79 79 79 78 79 79 79
121 121 121 122 121 121 120 119 118 117 116 116 117 117 118 119 120 121 123 124 126 127 128 129 130 130 130 129 127 125 122 119 117 114 111 109 107 106 104 103 101 99 97 95 93 92 91 90 89 88 87 87 86 86 86 85 85 85 85 85 84 84 83 83 82 82 81 80 80 79 78 78 77 77 76 76 76 76 77 77 77 77 77 77 77 77
122 122 121 121 120 119 118 118 117 116 116 117 118 119 120 121 122 123 125 126 127 129 130 130 130 130 128 126 123 120 117 114 111 109 107 105 104 102 101 99 97 95 93 92 90 89 88 87 86 85 85 84 84 84 84 83 83 83 82 82 82 81 81 80 80 79 79 78 77 77 76 75 75 74 74 74 74 74 74 75 75 75 75 75 75 75
122 122 121 120 119 118 118 117 117 117 117 118 120 121 122 123 125 126 127 128 129 130 130 130 130 128 125 121 118 115 111 109 106 104 103 102 100 99 97 96 94 92 90 88 87 86 85 84 83 83 83 82 82 82 81 81 81 80 80 80 79 78 78 78 77 77 76 76 75 74 73 73 72 72 71 71 71 72 72 72 73 73 73 74 74 74
121 121 120 119 117 117 117 118 118 118 119 120 122 123 124 125 127 128 129 130 130 130 129 128 126 123 120 116 112 109 106 104 102 101 100 98 97 95 94 92 90 88 87 85 84 83 82 81 81 81 81 80 80 79 79 79 78 78 77 76 76 76 75 75 75 74 74 73 72 72 71 70 70 69 69 69 69 69 69 70 70 71 71 72 72 72
120 119 118 118 117 117 117 118 119 120 121 122 124 125 125 127 128 130 131 131 130 128 126 123 120 117 114 111 107 104 102 100 99 98 97 95 93 91 90 88 87 86 84 83 82 80 80 79 79 79 78 78 78 77 77 76 75 75 74 74 73 73 73 72 72 72 71 71 70 69 69 68 67 67 66 66 66 66 66 67 68 68 69 70 70 71
119 118 117 117 118 118 119 120 121 122 123 124 126 127 128 128 129 130 131 130 128 125 121 118 115 112 109 106 103 100 98 97 96 95 94 92 90 88 86 85 84 83 81 80 79 78 77 77 76 76 76 75 75 74 74 73 73 72 72 71 71 71 70 70 69 69 68 68 68 67 66 66 65 65 64 64 64 64 64 64 65 66 67 67 68 69
118 117 117 118 119 119 120 122 123 124 125 126 127 129 130 131 130 129 128 126 123 119 116 113 110 107 104 101 98 96 94 93 93 92 91 89 87 85 84 82 81 80 79 78 76 75 75 74 74 73 73 72 72 71 71 70 70 70 70 69 69 68 68 67 67 66 66 66 65 65 64 64 63 63 62 62 61 61 61 62 62 63 64 65 66 66
117 117 118 119 120 121 122 123 125 126 127 128 129 130 131 130 129 126 124 120 116 113 110 108 105 103 100 97 95 92 91 90 89 89 88 86 84 82 81 80 79 78 76 75 74 73 72 71 71 70 70 69 69 69 68 68 68 68 67 67 66 66 65 65 65 64 64 64 63 63 62 62 61 61 60 60 59 59 59 59 60 61 61 62 63 64
118 119 120 121 122 123 124 125 127 128 129 130 130 130 130 128 125 122 118 115 111 108 105 104 102 100 97 94 91 89 87 86 86 86 85 84 82 80 78 77 76 75 73 72 71 70 69 69 68 67 67 67 66 66 66 66 66 65 65 65 64 64 63 63 63 62 62 62 61 61 60 60 60 59 58 58 57 57 57 57 58 58 59 60 60 61
119 120 122 123 124 125 126 127 128 130 131 131 130 129 127 125 121 117 113 110 107 104 102 100 98 96 94 91 88 85 84 84 84 83 83 81 79 77 75 74 73 72 71 69 68 68 67 66 65 65 64 64 64 64 64 63 63 63 63 62 62 62 61 61 61 60 60 60 59 59 58 58 58 57 57 56 55 55 55 55 55 56 56 57 57 58
120 122 123 125 126 127 128 129 130 131 131 130 128 126 123 120 116 112 109 106 103 101 99 97 95 93 91 88 86 83 81 81 81 81 80 79 77 75 72 71 70 69 68 67 66 65 64 64 63 63 62 62 62 62 61 61 61 61 60 60 60 60 59 59 59 58 58 57 57 57 57 56 56 56 55 54 54 53 53 53 53 54 54 54 55 55
122 124 125 126 128 129 130 131 131 131 129 128 125 122 118 114 111 108 105 102 100 98 95 93 91 89 87 86 84 81 79 78 77 77 77 76 74 72 70 68 67 66 66 65 64 63 62 62 61 61 60 60 60 60 59 59 59 59 58 58 58 58 58 57 57 56 56 56 55 55 55 55 54 54 53 53 52 51 51 51 51 52 52 52 52 52
124 126 127 128 130 131 131 131 131 129 127 124 121 117 114 111 108 105 102 99 96 94 92 90 88 86 84 83 81 79 77 75 74 74 74 73 72 70 67 65 64 63 63 62 62 61 60 60 59 59 59 58 58 58 58 57 57 57 56 56 56 56 56 55 55 55 54 54 53 53 53 53 53 52 52 51 50 50 49 49 49 50 50 50 50 50
127 128 129 130 131 132 132 130 128 125 122 119 116 113 110 107 104 102 99 96 93 91 89 87 85 84 82 80 78 76 74 72 71 71 71 70 69 67 65 63 61 61 61 60 60 59 58 58 58 57 57 57 57 56 56 56 55 55 55 55 54 54 54 53 53 53 52 52 52 51 51 52 51 51 50 50 49 48 48 48 48 48 48 48 48 48
129 130 131 131 131 132 130 128 124 121 117 114 111 109 106 103 101 98 95 93 90 88 86 85 83 81 79 77 75 73 71 70 69 68 68 68 67 65 62 60 59 59 59 59 58 57 56 56 56 56 56 55 55 54 54 54 54 53 53 53 53 52 52 52 51 51 50 50 50 50 50 50 50 49 49 48 48 47 47 47 47 46 46 46 46 46
130 132 132 131 130 129 126 123 119 116 113 110 107 105 102 100 97 94 92 90 87 86 84 82 80 78 76 74 72 70 68 67 66 65 66 66 65 63 60 58 57 57 57 57 56 55 55 54 54 54 54 54 53 53 53 52 52 52 52 52 51 51 51 50 50 49 49 49 48 48 49 49 48 48 48 47 47 46 46 46 45 45 45 45 45 45
131 132 131 129 127 124 121 118 114 111 108 106 103 101 98 96 93 91 89 87 85 83 81 80 78 76 74 71 69 67 65 64 63 63 63 63 62 61 58 56 55 55 55 55 54 54 53 53 53 53 53 52 52 51 51 51 51 50 50 50 50 50 49 49 48 48 48 47 47 47 47 47 47 47 46 46 46 45 45 45 44 44 44 44 43 43
131 130 128 125 122 119 116 113 110 107 104 102 99 97 94 92 90 88 86 84 82 80 78 77 75 73 71 69 67 65 63 61 61 60 61 61 60 59 57 55 54 54 54 53 53 52 51 51 51 51 51 51 50 50 50 50 50 49 49 49 49 49 48 48 47 47 46 46 46 46 46 46 46 45 45 45 44 44 44 44 43 43 43 42 42 42
129 126 124 120 117 113 111 108 105 103 100 98 95 93 91 89 87 85 83 81 79 77 76 74 72 71 69 67 65 63 61 59 58 58 58 59 58 57 55 53 53 52 53 52 51 50 50 50 50 50 50 50 49 49 49 49 49 48 48 48 48 48 47 47 46 46 46 45 45 45 45 45 44 44 44 43 43 43 43 42 42 42 42 42 41 41
124 121 118 114 111 109 106 104 101 99 96 93 91 89 87 86 84 83 81 79 76 75 73 71 70 68 67 65 63 61 59 57 56 56 56 56 56 55 53 52 51 51 51 51 50 49 49 49 49 49 49 49 48 48 48 48 48 48 47 47 47 47 46 46 46 45 45 45 44 44 44 43 43 43 43 42 42 42 42 41 41 41 41 41 40 40
119 115 112 109 107 104 102 99 97 94 92 90 88 86 84 83 81 80 78 76 74 72 70 68 67 66 65 64 62 60 58 56 54 54 53 53 53 53 51 50 49 49 50 50 49 48 48 48 48 48 48 48 47 47 47 47 47 47 46 46 46 46 46 45 45 44 44 44 44 43 43 42 42 42 42 41 41 41 41 40 40 40 40 40 39 39
114 110 108 105 103 100 98 95 93 90 88 86 85 83 81 79 78 76 75 73 71 69 68 66 65 64 63 62 61 59 56 54 53 52 52 51 51 50 49 48 48 48 48 49 48 47 46 46 46 47 47 47 46 46 46 46 46 46 45 45 45 45 44 44 44 44 43 43 43 42 42 41 41 41 41 40 40 40 40 39 39 39 39 39 38 38
109 106 103 101 98 96 93 91 89 87 85 83 81 80 78 76 75 73 71 70 68 67 65 64 63 62 61 60 59 58 56 53 52 51 50 50 49 49 47 47 46 47 47 47 47 46 45 45 45 45 45 45 45 45 45 45 45 45 44 44 44 43 43 43 43 42 42 42 42 41 41 40 40 40 40 39 39 39 39 38 38 38 38 38 37 37
105 102 99 97 94 92 90 88 86 84 82 80 79 77 75 73 71 69 68 67 65 64 63 62 61 60 59 58 58 56 55 53 51 50 49 49 48 47 46 45 45 45 46 46 46 45 44 43 43 43 44 44 44 44 44 44 44 44 43 43 42 42 42 42 41 41 41 40 40 40 40 40 39 39 38 38 38 38 37 37 37 37 37 37 36 36
101 98 95 93 90 88 86 85 83 81 79 77 75 74 72 70 68 66 65 64 63 61 61 60 59 58 57 56 56 55 54 52 51 49 48 48 47 46 45 45 44 44 44 45 45 44 43 42 41 41 42 42 43 43 43 43 43 42 42 41 41 41 40 40 40 39 39 39 39 39 39 39 38 38 37 37 37 37 37 36 36 36 36 36 35 35
97 94 92 89 87 85 83 82 80 78 76 74 72 70 69 67 65 64 62 61 60 59 58 57 57 56 56 55 54 53 53 51 50 49 48 47 47 46 44 44 43 43 43 43 43 43 43 41 40 39 40 40 41 41 42 42 42 41 41 40 40 39 39 39 38 38 37 37 37 38 38 37 37 36 36 36 36 36 36 35 35 35 35 35 34 34
93 90 88 86 84 83 81 79 77 75 73 71 69 68 66 65 63 62 60 59 58 57 56 55 55 54 54 53 53 52 51 50 49 48 47 46 46 45 44 43 43 42 42 42 42 42 42 41 40 39 38 39 39 40 40 40 40 40 39 39 38 38 38 38 37 36 36 36 36 36 36 36 36 35 35 35 35 35 35 34 34 34 34 34 33 33
89 87 85 83 82 80 78 76 74 72 70 68 67 65 64 62 61 60 58 57 56 55 54 53 52 52 52 51 51 51 50 49 48 47 46 46 45 45 44 43 42 42 42 42 41 41 40 40 39 38 38 37 37 38 38 39 39 38 38 37 37 37 37 37 36 35 35 34 34 34 34 34 34 34 34 33 33 33 33 33 33 33 33 33 33 32
86 84 82 81 79 77 75 73 71 69 67 66 64 63 61 60 59 58 57 56 55 53 52 51 50 50 49 49 49 49 49 48 47 46 45 45 44 44 43 43 42 41 41 41 40 40 39 39 38 38 37 37 36 36 36 37 37 37 36 36 35 35 35 35 35 34 34 33 33 33 33 33 33 33 33 32 32 32 32 32 32 32 32 32 32 31
83 81 80 78 76 74 72 70 68 67 65 63 62 60 59 58 57 56 55 54 53 52 51 50 49 48 48 47 47 47 47 47 46 45 44 44 43 43 43 42 41 41 40 40 40 39 38 38 38 37 37 36 36 35 35 35 35 35 34 34 34 34 34 34 34 34 33 32 31 31 31 31 32 32 31 31 31 31 31 31 31 31 31 31 31 31
80 79 77 75 73 71 70 68 66 65 63 61 60 58 57 56 55 54 53 52 51 51 50 49 48 47 46 46 46 46 46 46 45 45 44 43 42 42 41 41 40 40 40 40 39 39 38 37 37 37 36 36 36 35 34 34 33 33 32 32 32 32 32 32 33 33 32 31 30 30 30 30 30 30 30 30 30 30 30 30 30 31 31 30 30 30
78 76 74 72 70 69 67 66 64 62 61 59 58 57 56 54 53 52 51 51 50 49 48 48 47 46 45 45 44 45 45 45 44 44 43 43 42 41 40 40 40 39 39 39 39 38 38 37 37 36 36 36 35 35 34 33 32 32 31 30 30 30 30 31 31 31 31 30 30 29 29 29 29 29 29 29 29 29 29 29 29 29 30 30 30 30
75 73 71 69 68 66 65 63 62 61 59 58 56 55 54 53 52 51 50 49 48 48 47 47 46 45 45 44 44 43 44 44 44 43 43 42 41 40 40 39 39 39 38 38 38 38 37 37 37 36 36 35 35 34 33 32 32 31 30 30 29 28 28 29 29 30 30 29 29 28 28 28 28 28 28 28 28 28 28 28 28 28 29 29 29 29
72 70 68 67 65 64 62 61 60 59 57 56 55 54 53 52 51 50 49 48 47 47 46 46 45 45 44 43 43 43 43 43 43 43 43 42 41 40 39 39 38 38 38 38 37 37 37 37 36 36 36 35 35 34 32 31 31 30 30 29 28 27 27 27 27 28 28 28 28 28 27 27 27 27 27 27 27 27 28 28 28 28 28 28 28 28
69 68 66 64 63 62 60 59 58 57 56 55 54 53 52 51 50 49 49 48 47 46 45 45 45 45 44 43 42 42 42 42 42 42 42 42 41 40 39 38 38 37 37 37 37 36 36 36 36 36 35 35 34 33 32 30 29 29 29 28 28 27 26 26 26 26 27 27 27 27 27 27 27 26 26 26 27 27 27 27 27 27 27 27 28 28
67 65 64 62 61 60 58 57 56 55 54 53 53 52 51 51 50 49 49 48 47 46 45 45 45 44 44 43 42 41 41 41 41 41 42 41 41 40 39 38 37 37 37 37 36 36 35 35 35 35 35 35 34 33 31 30 28 27 27 27 27 26 25 25 25 25 25 26 26 26 27 26 26 26 26 26 26 26 27 27 27 27 27 27 27 28
65 63 62 60 59 58 57 56 55 54 53 52 52 51 51 50 50 49 49 48 48 47 46 45 45 44 44 43 42 41 40 40 40 40 41 41 40 40 39 38 37 36 36 36 36 35 34 34 34 34 34 34 33 32 31 29 28 26 25 25 26 26 25 24 24 24 24 25 25 26 26 26 26 26 26 26 26 26 26 26 27 27 27 27 27 27
63 61 60 59 58 57 56 55 54 53 53 52 51 51 50 50 50 49 49 49 48 47 46 46 45 44 44 43 42 40 39 39 39 39 39 40 40 39 38 37 36 36 35 35 35 34 34 33 33 33 33 32 32 31 30 29 27 26 25 24 24 24 24 24 24 24 23 24 24 25 25 25 25 25 25 25 25 26 26 26 26 26 26 27 27 27
60 59 58 57 56 56 55 54 54 53 53 52 51 51 50 50 49 49 49 48 48 47 47 46 45 44 44 43 41 40 39 38 37 37 38 38 39 38 38 37 36 35 34 34 33 33 33 33 33 32 32 31 30 30 29 28 27 25 24 23 23 23 23 24 24 24 24 23 24 24 24 24 24 24 25 25 25 25 25 26 26 26 26 26 26 26
59 58 57 56 56 55 55 54 54 53 53 52 51 51 50 50 49 49 48 48 47 47 46 45 45 44 43 42 41 40 38 37 36 36 36 37 37 37 37 36 35 34 33 33 32 32 32 32 32 31 31 30 29 28 27 27 26 25 24 23 22 22 22 22 23 23 23 23 23 23 23 23 23 24 24 24 24 25 25 25 25 25 25 25 25 25
57 57 57 56 56 56 55 55 54 54 53 52 52 51 50 49 49 48 48 47 46 46 45 45 44 43 42 42 40 39 38 36 35 34 34 35 36 36 36 35 34 33 32 31 31 30 31 31 31 30 30 29 27 26 25 25 25 25 24 23 22 22 21 22 22 22 23 23 23 23 23 23 23 23 23 23 23 24 24 24 24 24 24 24 24 25
57 57 57 57 56 56 56 55 55 54 53 52 51 50 49 49 48 47 47 46 45 45 44 43 43 42 41 40 39 38 36 35 34 33 33 33 34 34 34 33 33 32 31 30 29 29 29 29 29 29 29 28 26 25 24 23 23 23 23 23 22 22 21 21 21 22 22 23 23 22 22 23 23 23 23 23 22 23 23 23 23 24 24 24 24 24
57 57 57 57 57 56 56 55 54 54 53 52 51 50 49 48 47 46 45 45 44 43 42 42 41 40 39 38 37 36 35 33 32 32 31 32 32 32 32 32 31 30 29 28 28 28 28 28 28 28 27 26 25 24 22 22 22 22 22 22 22 21 21 21 21 21 21 22 22 22 22 22 22 22 22 22 22 22 22 22 22 23 23 23 23 23
57 57 57 57 56 56 55 54 53 52 51 50 49 48 47 46 45 44 43 43 42 41 40 40 39 38 37 36 35 33 32 31 31 30 30 30 30 30 30 30 29 28 27 27 27 27 27 27 27 26 26 25 24 23 22 21 20 21 21 21 21 21 21 21 21 21 21 21 21 21 21 21 21 22 22 22 21 21 21 21 22 22 22 22 22 22
58 57 57 56 55 55 54 53 52 51 50 49 48 46 45 44 43 42 41 41 40 39 38 37 36 36 34 33 32 31 30 29 29 29 28 28 28 28 28 27 27 26 26 26 26 26 26 26 26 25 25 24 23 22 21 20 20 19 19 20 20 20 20 20 20 20 20 20 20 20 20 20 21 21 21 21 21 21 21 21 21 21 21 21 21 20
Wind_Direction
296 296 296 297 297 297 297 297 297 297 297 297 297 297 297 297 297 297 297 297 297 298 298 298 298 298 298 298 298 298 297 297 297 296 296 296 296 295 295 294 294 293 292 291 290 290 289 288 288 288 287 287 286 285 285 284 283 283 282 282 281 280 280 279 278 278 277 277 276 276 275 275 274 274 273 272 272 271 270 270 269 268 267 266 265 264
297 297 297 298 298 298 298 298 298 298 298 298 298 298 298 298 298 298 298 298 298 298 299 299 299 299 299 298 298 298 298 297 297 297 297 296 296 296 295 294 294 293 292 291 290 289 289 289 288 288 287 287 286 285 284 284 283 283 282 281 281 280 279 279 278 278 277 277 276 276 275 275 274 274 273 273 272 271 271 270 269 268 267 266 265 264
298 298 298 299 299 299 299 299 299 299 299 299 298 299 299 299 299 299 299 299 299 299 299 299 299 299 299 299 299 298 298 298 297 297 297 297 296 296 295 294 293 292 291 290 290 289 289 289 289 288 287 286 286 285 284 284 283 282 282 281 280 280 279 279 278 278 277 277 276 276 276 275 275 274 274 273 272 271 270 269 268 267 266 265 264 263
299 299 299 299 299 299 299 299 299 299 299 299 299 299 299 299 299 299 300 300 300 300 300 300 300 300 299 299 299 299 298 298 298 297 297 297 296 295 295 294 293 292 291 290 290 290 290 289 288 288 287 286 286 285 284 283 283 282 281 281 280 279 279 278 278 278 277 277 277 277 276 276 275 275 274 273 272 271 270 269 268 267 266 265 264 263
300 300 300 300 300 300 300 300 299 299 299 299 299 299 300 300 300 300 300 301 301 301 301 300 300 300 300 300 299 299 299 298 298 297 297 296 296 295 294 293 292 291 291 291 290 290 290 289 288 287 287 286 286 285 284 283 282 282 281 280 280 279 279 279 278 278 278 278 277 277 276 276 275 274 274 273 272 271 270 269 268 267 266 265 264 263
300 300 300 300 300 300 300 300 300 300 300 300 300 300 300 301 301 301 301 301 301 301 301 301 300 300 300 300 299 299 299 298 298 297 297 296 295 294 293 293 292 291 291 291 291 290 290 289 288 287 287 286 285 284 283 283 282 281 281 280 280 279 279 279 279 278 278 278 277 277 276 275 275 274 273 272 271 271 270 269 268 267 266 265 264 263
301 301 301 301 300 300 300 300 300 300 300 300 300 301 301 301 302 302 302 302 302 301 301 301 301 300 300 300 299 299 298 298 298 297 297 296 295 294 293 292 292 292 291 291 291 290 289 289 288 287 287 286 285 284 283 282 282 281 281 280 280 280 279 279 279 278 278 277 277 276 276 275 274 274 273 272 271 271 270 269 268 268 267 266 265 264
301 301 301 301 300 300 300 300 300 300 301 301 301 302 302 302 302 302 302 302 302 302 301 301 301 301 300 300 299 299 298 298 298 297 296 295 294 294 293 292 292 292 292 291 291 290 289 289 288 287 286 285 285 284 283 282 282 281 281 281 280 280 280 279 279 278 278 277 276 276 275 275 274 273 273 272 271 271 270 269 269 268 267 266 265 264
301 301 301 301 300 300 300 300 301 301 301 302 302 302 302 303 303 303 303 302 302 302 302 301 301 300 300 299 299 299 298 298 297 297 296 295 294 294 293 293 293 292 292 291 291 290 289 289 288 287 286 285 284 284 283 283 282 282 281 281 281 280 280 279 279 278 278 277 276 276 275 275 274 273 273 272 271 270 270 269 269 268 267 266 265 264
301 301 301 301 301 301 301 301 301 302 302 303 303 303 303 303 303 303 303 302 302 302 302 301 301 300 300 299 299 299 298 298 298 297 296 295 294 294 293 293 293 292 292 291 291 290 289 288 288 287 286 285 285 284 283 283 282 282 281 281 280 280 279 279 278 278 278 277 277 276 275 275 274 273 272 271 271 270 269 269 268 268 267 266 265 264
301 301 301 301 301 301 301 302 302 303 303 303 303 303 303 303 303 303 303 303 302 302 302 301 301 300 300 299 299 299 299 298 298 297 296 295 294 294 294 293 293 292 292 291 291 290 289 288 287 287 286 285 285 284 284 283 283 282 281 281 280 280 279 279 279 278 278 278 277 276 276 275 274 273 272 271 270 270 269 268 268 267 267 266 265 265
301 301 301 301 301 302 302 303 303 303 304 304 304 304 304 303 303 303 303 303 302 302 302 301 301 300 300 299 299 299 299 298 298 296 295 295 294 294 294 293 293 292 292 291 291 290 289 288 287 287 286 285 285 284 284 283 283 282 281 281 280 280 280 279 279 279 278 278 277 277 276 275 274 273 272 271 270 270 269 268 267 267 266 266 265 265
301 301 301 302 302 303 303 303 304 304 304 304 304 304 304 304 304 303 303 303 302 302 302 301 301 300 300 300 299 299 299 298 297 296 295 295 295 294 294 294 293 292 292 291 291 290 289 288 287 287 286 286 285 284 284 283 283 282 282 281 281 280 280 280 279 279 278 278 277 277 276 275 275 274 273 272 271 270 269 268 267 266 266 265 265 264
302 302 302 303 303 303 304 304 304 304 304 304 304 304 304 304 304 303 303 303 303 302 302 302 301 301 300 300 300 299 299 298 297 296 295 295 295 295 294 294 293 292 292 291 291 290 289 288 287 287 286 286 285 284 284 283 283 283 282 282 282 281 281 280 280 279 279 278 278 277 276 276 275 274 273 272 271 270 269 268 267 266 265 265 264 264
302 303 303 303 304 304 305 305 305 305 305 305 305 305 304 304 304 304 303 303 303 303 302 302 301 301 300 300 300 300 299 298 297 296 296 295 295 295 294 294 293 292 292 291 291 290 289 288 287 287 286 286 285 284 284 283 283 283 282 282 282 282 281 281 280 280 279 279 278 278 277 276 275 274 273 272 271 270 269 268 267 266 265 264 264 263
303 304 304 304 305 305 305 305 305 305 305 305 305 305 305 304 304 304 304 303 303 303 303 302 302 301 301 300 300 300 299 298 297 297 296 296 295 295 294 294 293 293 292 292 291 290 289 288 288 287 286 285 285 284 284 283 283 283 283 282 282 282 281 281 280 280 280 279 279 278 278 277 276 275 274 273 272 271 270 268 267 266 265 265 264 263
304 304 305 305 305 305 306 306 306 305 305 305 305 305 305 305 304 304 304 304 303 303 303 302 302 301 301 300 300 300 299 298 298 297 296 296 295 295 294 294 294 293 292 292 291 290 289 289 288 287 286 285 285 284 284 283 283 283 283 282 282 282 281 281 281 280 280 280 279 279 278 277 277 276 275 274 273 271 270 269 268 267 266 265 264 263
305 305 305 306 306 306 306 306 306 306 306 306 306 305 305 305 305 304 304 304 304 303 303 302 302 301 301 301 300 300 299 299 298 297 297 296 295 295 295 294 294 293 293 292 291 290 290 289 288 287 287 286 285 285 284 284 284 283 283 283 282 282 282 281 281 281 280 280 280 279 278 278 277 276 275 274 273 272 271 270 269 268 267 266 265 264
306 306 306 306 306 306 306 306 306 306 306 306 306 305 305 305 305 305 304 304 304 303 303 302 302 301 301 301 300 300 300 299 298 297 297 296 295 295 295 295 294 294 293 292 291 291 290 289 288 288 287 286 286 285 285 285 284 284 284 283 283 282 282 282 281 281 281 280 280 279 279 278 278 277 276 275 274 273 272 271 270 269 268 267 266 264
306 306 306 307 307 307 307 307 306 306 306 306 306 306 305 305 305 305 304 304 304 303 303 302 302 301 301 301 300 300 300 299 299 298 297 296 296 295 295 295 295 294 293 292 291 291 290 289 289 288 287 287 286 286 286 285 285 284 284 284 283 283 283 282 282 282 281 281 280 280 279 279 278 278 277 276 275 274 273 272 271 270 269 268 266 265
307 307 307 307 307 307 307 307 306 306 306 306 306 305 305 305 305 305 304 304 304 303 303 303 302 302 301 301 301 300 300 300 299 298 297 296 296 296 296 296 295 294 293 292 291 291 290 290 289 288 288 287 287 286 286 286 285 285 285 284 284 283 283 283 282 282 282 281 281 280 280 279 279 278 278 277 276 275 274 273 272 271 270 268 267 266
307 307 307 307 307 307 307 307 306 306 306 306 306 305 305 305 305 305 304 304 304 304 303 303 302 302 301 301 301 301 300 300 299 298 297 296 296 296 296 296 295 294 293 292 291 291 291 290 289 289 288 288 287 287 287 287 286 286 285 285 284 284 284 283 283 283 282 282 281 280 280 279 279 279 278 278 277 276 275 274 273 271 270 269 268 267
307 307 307 307 307 307 307 307 306 306 306 306 306 305 305 305 305 304 304 304 304 304 303 303 302 302 302 301 301 301 300 300 299 298 297 297 296 297 297 296 295 294 293 292 292 291 291 290 289 289 289 288 288 288 287 287 287 286 286 285 285 285 284 284 283 283 282 282 281 280 280 280 279 279 278 278 277 276 275 274 273 272 271 270 268 267
307 307 307 307 307 307 307 306 306 306 306 306 306 305 305 305 305 305 304 304 304 304 303 303 303 302 302 302 301 301 301 300 299 298 298 297 297 297 297 296 295 294 293 293 292 292 291 291 290 289 289 289 289 288 288 288 287 287 286 286 286 285 285 285 284 283 283 282 281 281 281 280 280 279 279 278 277 276 275 274 274 272 271 270 269 267
307 307 307 307 307 307 307 306 306 306 306 306 306 305 305 305 305 305 304 304 304 304 303 303 303 303 302 302 302 301 301 300 299 298 297 297 297 297 297 297 296 295 294 293 293 292 292 291 291 290 290 289 289 289 289 288 288 287 287 286 286 286 286 285 285 284 283 283 282 282 281 281 280 279 279 278 277 276 275 275 274 273 272 270 269 268
307 307 307 307 307 307 307 306 306 306 306 306 306 305 305 305 305 305 305 304 304 304 304 303 303 303 302 302 302 301 301 300 299 298 297 297 297 297 297 297 296 295 294 293 293 293 292 292 291 290 290 290 290 289 289 288 288 287 287 287 287 286 286 286 285 284 284 283 283 282 282 281 280 280 279 278 277 277 276 275 274 273 272 270 269 268
307 307 307 307 307 307 307 306 306 306 306 306 306 306 305 305 305 305 305 305 305 304 304 304 303 303 302 302 302 301 301 300 299 298 297 297 297 297 297 297 296 295 294 293 293 293 292 292 291 290 290 290 289 289 289 288 288 288 287 287 287 287 286 286 285 285 284 284 283 282 282 281 280 280 279 278 277 276 276 275 274 273 272 270 269 268
307 307 307 307 307 307 307 306 306 306 306 306 306 306 305 305 305 305 305 305 305 304 304 304 303 303 302 302 302 301 301 300 299 298 298 297 297 297 297 296 295 294 293 293 293 292 292 291 291 290 290 290 289 289 288 288 288 287 287 287 287 286 286 286 285 285 284 284 283 282 282 281 280 280 279 278 277 276 276 275 274 273 272 270 269 267
308 308 307 307 307 307 307 307 306 306 306 306 306 306 306 305 305 305 305 305 304 304 304 304 303 303 302 302 302 301 301 300 300 298 298 297 297 296 296 296 295 294 293 292 292 292 291 291 290 290 290 290 289 289 288 288 287 287 287 287 287 287 286 286 285 285 284 284 283 282 281 281 280 279 279 278 277 276 276 275 274 272 271 270 269 267
308 308 308 308 307 307 307 307 307 306 306 306 306 306 306 305 305 305 305 305 304 304 304 303 303 303 302 302 302 301 301 300 300 299 298 297 297 297 296 295 294 293 293 292 292 292 291 291 290 290 290 290 289 289 288 288 288 287 287 287 287 286 286 285 285 284 284 283 282 282 281 280 280 279 278 278 277 276 275 274 273 272 271 269 268 267
308 308 308 308 307 307 307 307 307 307 306 306 306 306 306 305 305 305 304 304 304 304 303 303 303 302 302 302 301 301 301 301 300 299 299 298 297 297 297 296 295 294 293 293 292 292 292 291 291 290 290 290 290 289 289 288 288 288 288 287 287 286 286 285 284 283 283 282 281 281 280 280 279 278 278 277 276 276 275 274 273 272 271 269 268 266
308 308 308 308 308 307 307 307 307 307 307 306 306 306 306 305 305 305 304 304 304 303 303 303 302 302 302 301 301 301 301 301 300 300 299 299 298 298 297 296 295 294 294 293 293 293 293 293 292 291 290 290 290 290 289 289 289 288 288 288 287 286 285 284 283 283 282 281 280 280 279 279 278 278 277 277 276 275 274 274 273 272 271 270 269 267
308 308 308 308 308 308 307 307 307 307 307 306 306 306 306 305 305 304 304 304 303 303 303 302 302 302 302 301 301 301 301 301 300 300 299 299 298 298 298 297 296 295 294 294 294 294 294 294 293 292 291 290 290 290 290 289 289 289 288 288 287 286 286 284 283 282 281 280 279 279 278 278 278 277 277 276 276 275 274 274 273 272 272 271 270 269
309 308 308 308 308 308 308 307 307 307 307 307 306 306 305 305 305 304 304 303 303 303 302 302 302 301 301 301 301 300 300 300 300 300 299 299 299 298 298 298 297 296 296 295 295 295 295 295 294 294 292 291 290 290 290 290 289 289 289 288 288 287 286 284 283 282 280 279 278 278 278 278 277 277 276 276 275 275 274 274 274 273 273 272 272 271
309 309 309 308 308 308 308 308 307 307 307 306 306 306 305 305 305 304 304 303 303 303 302 302 301 301 301 300 300 300 300 300 299 299 299 299 299 299 298 298 298 297 297 296 296 296 296 296 295 295 294 292 291 290 290 290 290 289 289 288 287 287 286 285 284 282 281 279 278 277 277 277 277 277 276 276 275 275 275 275 274 274 274 273 273 272
309 309 309 309 308 308 308 308 307 307 307 306 306 306 305 305 304 304 304 303 303 303 302 302 301 301 300 300 299 299 299 299 299 299 299 298 298 298 298 298 298 298 297 297 297 297 297 297 297 296 295 294 293 292 291 290 289 289 288 288 287 286 286 285 284 283 282 281 279 278 277 277 277 277 276 276 276 275 275 275 275 275 274 274 274 273
309 309 309 309 308 308 308 308 307 307 307 306 306 305 305 304 304 304 303 303 303 302 302 301 301 301 300 299 299 299 298 298 299 299 298 298 298 298 298 298 298 298 297 297 298 298 298 298 298 297 296 296 295 294 292 291 290 289 288 287 286 285 285 285 285 284 284 282 281 280 279 278 278 278 277 277 277 276 276 276 276 275 275 275 274 274
309 309 309 309 309 308 308 308 307 307 307 306 306 305 305 304 304 303 303 303 302 302 301 301 301 300 300 299 299 298 298 298 298 298 298 298 298 298 297 297 297 297 297 297 298 298 299 299 299 298 297 296 296 295 294 293 291 289 288 286 285 285 284 285 285 285 284 284 283 282 281 280 280 279 279 279 278 278 278 277 277 277 276 276 275 275
310 309 309 309 309 308 308 308 308 307 307 306 306 306 305 304 304 303 303 302 302 301 301 300 300 299 299 299 298 298 297 297 297 298 298 298 298 297 297 297 297 297 297 297 298 298 299 299 299 299 298 297 296 295 295 294 293 291 289 287 285 284 284 284 285 285 285 285 285 284 283 283 282 281 281 281 281 280 280 279 279 279 278 277 277 276
310 310 309 309 309 309 308 308 308 307 307 307 306 306 305 305 304 303 303 302 301 301 300 299 299 299 298 298 298 297 297 297 297 297 297 297 297 297 297 297 297 297 297 297 298 298 299 299 299 299 298 297 297 296 295 294 293 292 290 288 287 285 285 285 285 285 286 286 286 286 285 285 284 284 284 283 283 283 283 282 282 281 280 279 279 277
310 310 310 309 309 309 308 308 308 307 307 307 306 306 305 305 304 303 302 302 301 300 300 299 298 298 298 298 297 297 297 296 296 296 296 296 296 297 297 296 296 296 296 297 297 298 299 299 299 298 298 297 296 296 295 294 293 291 290 289 288 287 286 285 285 286 286 287 287 287 287 286 286 286 286 285 286 285 285 285 284 283 282 281 280 279
311 310 310 310 309 309 309 308 308 308 307 307 306 306 305 304 304 303 302 301 301 300 299 298 298 297 297 297 296 296 296 295 295 295 295 295 296 296 296 296 296 296 296 296 297 298 298 299 298 298 297 297 296 296 295 294 293 291 290 290 289 288 288 287 287 286 287 287 288 288 288 288 288 288 288 288 288 287 287 286 286 285 284 282 281 279
311 311 310 310 310 309 309 309 308 308 307 307 306 305 305 304 303 302 302 301 300 300 299 298 297 297 296 296 296 295 295 294 294 294 293 294 294 295 295 295 295 295 295 296 297 297 298 298 298 297 297 296 296 296 295 294 293 291 291 290 290 290 289 289 289 288 288 288 288 289 289 290 290 290 290 290 290 289 289 288 287 286 285 283 281 279
311 311 311 310 310 310 309 309 308 308 307 306 306 305 304 303 302 302 301 300 300 299 299 298 297 297 296 296 295 295 294 293 292 292 291 292 292 293 294 294 294 294 294 295 296 297 298 297 297 296 296 296 296 296 295 295 293 292 291 291 290 291 291 291 291 290 290 289 289 290 290 291 291 292 292 292 292 291 290 289 288 286 285 283 281 279
311 311 311 311 310 310 309 309 308 308 307 306 305 305 304 303 302 301 300 300 299 299 298 298 297 296 296 296 295 294 293 292 291 290 290 290 291 291 292 293 293 293 294 294 295 296 297 296 296 296 296 295 296 296 295 295 294 293 292 292 291 291 292 292 293 293 292 292 292 292 292 292 293 293 294 294 293 292 291 290 288 286 285 283 281 280
312 312 311 311 311 310 310 309 308 308 307 306 305 304 303 303 302 301 300 299 299 298 298 297 297 296 296 296 295 294 293 292 291 290 289 288 289 290 291 292 292 293 293 294 295 296 296 295 295 295 295 295 295 295 295 295 294 294 294 293 292 292 293 293 294 295 295 295 295 294 294 294 294 295 295 295 294 293 291 290 289 287 285 283 282 280
312 312 312 311 311 310 310 309 309 308 307 306 305 304 304 303 302 301 300 299 299 298 298 297 297 296 296 295 295 294 294 293 291 289 288 287 287 288 289 290 292 292 293 294 295 295 295 295 295 295 295 295 295 294 294 294 294 294 294 294 294 294 294 295 295 295 296 296 297 297 297 297 297 297 297 296 295 294 292 291 290 288 286 284 282 280
313 313 312 312 311 311 310 309 309 308 307 306 306 305 304 303 302 301 300 300 299 298 298 297 297 296 296 296 295 295 294 293 292 290 288 287 287 287 288 290 291 292 293 294 294 294 294 294 294 295 295 295 294 294 293 292 293 293 294 294 294 295 295 296 296 296 297 298 298 299 299 300 300 300 299 297 296 295 294 292 291 289 287 285 283 281
314 313 313 312 312 311 310 310 309 308 307 307 306 305 304 303 302 301 301 300 300 299 298 298 297 297 296 296 296 295 295 294 292 290 288 287 287 287 288 289 291 292 293 293 293 293 293 294 294 295 295 295 294 294 293 292 291 292 292 293 294 296 297 298 298 298 298 299 300 300 301 301 301 301 300 299 298 297 295 294 292 290 288 286 283 281
314 314 313 312 312 311 311 310 309 308 308 307 306 305 305 304 303 302 302 301 300 300 299 299 298 298 297 297 296 296 295 294 292 291 289 288 287 288 288 290 291 292 293 293 293 293 293 293 294 295 295 295 295 294 293 292 291 291 291 292 294 296 298 299 300 300 300 301 302 302 303 303 302 302 301 301 300 299 297 295 293 290 288 286 284 281
315 314 313 313 312 312 311 310 310 309 308 307 307 306 305 304 304 303 303 302 301 301 300 300 299 299 298 298 297 296 295 294 293 291 290 289 288 289 290 291 292 293 293 292 292 292 292 294 294 294 295 295 295 294 294 292 291 290 290 292 294 296 299 300 301 302 303 303 304 304 304 304 304 303 303 302 302 301 298 296 293 290 288 285 283 281
Height
10415 10411 10407 10405 10401 10397 10391 10386 10383 10380 10375 10368 10364 10362 10358 10355 10350 10345 10342 10338 10335 10330 10326 10322 10318 10314 10310 10307 10303 10298 10294 10290 10285 10282 10278 10275 10271 10267 10263 10260 10255 10251 10246 10242 10238 10234 10231 10228 10225 10223 10220 10218 10215 10212 10209 10207 10203 10202 10199 10197 10195 10193 10192 10190 10189 10188 10187 10187 10187 10187 10187 10188 10188 10190 10190 10192 10192 10193 10193 10195 10195 10196 10197 10198 10198 10199
10406 10402 10398 10395 10392 10387 10381 10375 10371 10368 10364 10359 10354 10350 10347 10343 10339 10335 10330 10327 10323 10319 10315 10312 10308 10303 10298 10294 10290 10287 10282 10277 10272 10268 10265 10261 10258 10254 10250 10245 10241 10236 10232 10228 10225 10222 10219 10217 10214 10212 10209 10207 10203 10200 10198 10195 10193 10190 10188 10186 10184 10182 10180 10179 10178 10177 10177 10177 10177 10177 10177 10178 10179 10180 10181 10182 10182 10183 10184 10185 10185 10185 10186 10187 10187 10188
10397 10393 10387 10383 10381 10377 10372 10365 10360 10356 10352 10348 10344 10340 10336 10333 10328 10324 10320 10317 10312 10308 10304 10300 10296 10292 10287 10282 10278 10273 10269 10265 10260 10255 10251 10248 10245 10240 10236 10232 10227 10222 10218 10215 10212 10210 10208 10206 10203 10201 10198 10195 10192 10190 10187 10185 10182 10180 10177 10175 10173 10172 10170 10169 10168 10167 10167 10167 10167 10167 10168 10169 10170 10171 10172 10173 10173 10173 10173 10174 10174 10175 10175 10176 10177 10178
10388 10384 10378 10373 10370 10366 10361 10356 10351 10346 10341 10337 10334 10330 10327 10322 10318 10313 10310 10307 10302 10298 10293 10288 10283 10280 10275 10270 10265 10261 10257 10252 10247 10242 10238 10235 10232 10227 10223 10218 10213 10209 10206 10203 10202 10200 10198 10195 10193 10190 10187 10184 10182 10179 10177 10174 10172 10169 10167 10165 10163 10162 10160 10159 10158 10158 10158 10158 10158 10159 10160 10160 10161 10162 10163 10163 10163 10163 10163 10163 10163 10164 10165 10165 10166 10167
10378 10375 10370 10364 10359 10354 10349 10345 10341 10336 10332 10327 10323 10320 10317 10313 10308 10303 10299 10295 10291 10287 10282 10277 10272 10267 10262 10257 10252 10248 10243 10239 10235 10230 10226 10223 10219 10215 10210 10205 10201 10197 10195 10193 10192 10190 10188 10185 10182 10178 10176 10173 10172 10169 10167 10164 10162 10159 10157 10155 10153 10152 10151 10150 10150 10150 10150 10150 10150 10150 10151 10152 10152 10153 10153 10153 10153 10153 10153 10153 10153 10154 10155 10155 10157 10157
10368 10365 10360 10355 10350 10344 10339 10335 10330 10326 10322 10317 10313 10310 10308 10304 10299 10294 10289 10284 10279 10275 10270 10265 10260 10255 10250 10245 10240 10235 10231 10227 10223 10218 10215 10211 10207 10202 10197 10193 10190 10187 10185 10183 10182 10180 10177 10174 10171 10168 10166 10163 10161 10158 10156 10154 10152 10150 10148 10146 10145 10143 10142 10142 10142 10142 10142 10142 10142 10142 10142 10143 10143 10143 10143 10143 10143 10143 10143 10143 10143 10144 10145 10146 10147 10148
10358 10353 10349 10345 10340 10335 10329 10325 10321 10317 10313 10308 10303 10298 10296 10293 10289 10285 10280 10275 10268 10263 10257 10252 10247 10243 10238 10233 10228 10223 10219 10215 10212 10208 10203 10199 10195 10190 10186 10182 10179 10177 10176 10174 10172 10170 10167 10164 10162 10159 10157 10154 10152 10149 10147 10145 10142 10140 10138 10137 10136 10135 10135 10134 10133 10133 10133 10133 10133 10133 10133 10133 10134 10134 10134 10134 10134 10134 10134 10134 10134 10135 10135 10137 10137 10138
10348 10343 10338 10334 10330 10325 10320 10314 10310 10307 10305 10302 10295 10289 10285 10281 10277 10272 10268 10263 10258 10253 10246 10240 10235 10229 10225 10220 10216 10212 10208 10204 10200 10197 10192 10188 10183 10178 10175 10172 10170 10168 10167 10165 10162 10160 10157 10155 10152 10149 10147 10144 10142 10140 10138 10135 10133 10132 10130 10129 10128 10127 10127 10126 10125 10125 10125 10125 10125 10125 10125 10125 10125 10126 10126 10126 10126 10125 10125 10125 10125 10126 10127 10127 10128 10129
10339 10334 10329 10323 10319 10315 10312 10305 10299 10295 10293 10291 10287 10281 10276 10272 10267 10260 10254 10250 10245 10241 10236 10230 10224 10218 10212 10208 10204 10202 10198 10194 10190 10185 10182 10177 10172 10168 10165 10163 10160 10159 10157 10155 10153 10151 10148 10145 10143 10140 10137 10135 10132 10130 10128 10127 10125 10124 10122 10122 10120 10120 10118 10118 10117 10117 10116 10116 10116 10117 10117 10117 10118 10118 10118 10118 10118 10118 10117 10117 10117 10117 10118 10118 10119 10120
10328 10324 10320 10315 10310 10305 10302 10297 10292 10287 10283 10280 10275 10270 10266 10263 10258 10253 10245 10238 10232 10227 10223 10219 10213 10207 10202 10197 10193 10190 10188 10184 10180 10175 10170 10166 10162 10158 10156 10153 10152 10150 10148 10146 10144 10142 10139 10137 10133 10131 10128 10126 10123 10122 10120 10118 10117 10116 10115 10113 10113 10112 10110 10110 10109 10108 10108 10108 10108 10108 10109 10109 10110 10110 10110 10110 10110 10110 10110 10110 10109 10109 10109 10110 10110 10111
10318 10314 10310 10305 10300 10295 10292 10288 10283 10278 10275 10270 10265 10260 10254 10250 10247 10243 10238 10230 10222 10215 10211 10207 10201 10196 10192 10188 10183 10180 10178 10174 10169 10163 10159 10156 10153 10150 10148 10145 10143 10141 10139 10137 10135 10133 10130 10128 10125 10122 10120 10117 10115 10113 10112 10110 10109 10108 10107 10106 10105 10103 10103 10102 10102 10101 10101 10100 10100 10100 10101 10101 10102 10102 10102 10102 10103 10103 10103 10102 10102 10102 10102 10102 10102 10102
10308 10304 10300 10295 10290 10286 10282 10277 10273 10268 10264 10260 10256 10250 10243 10237 10232 10230 10225 10219 10212 10206 10201 10195 10189 10184 10181 10178 10175 10172 10168 10164 10158 10153 10148 10145 10144 10142 10140 10137 10135 10132 10130 10129 10127 10125 10122 10119 10117 10114 10112 10110 10108 10106 10104 10103 10101 10100 10099 10098 10097 10096 10095 10095 10094 10094 10093 10093 10093 10093 10093 10093 10093 10094 10095 10095 10095 10095 10095 10095 10095 10095 10095 10095 10095 10095
10299 10295 10290 10286 10282 10277 10273 10268 10263 10258 10253 10248 10245 10240 10233 10226 10220 10216 10212 10207 10202 10196 10192 10186 10180 10174 10170 10168 10166 10164 10160 10155 10148 10143 10139 10137 10135 10134 10132 10129 10127 10124 10122 10120 10118 10116 10113 10111 10108 10106 10104 10102 10100 10098 10097 10095 10093 10092 10091 10090 10090 10089 10088 10088 10087 10087 10087 10086 10086 10085 10085 10086 10086 10087 10087 10087 10088 10088 10088 10088 10088 10088 10088 10088 10088 10088
10290 10285 10281 10276 10271 10267 10263 10258 10253 10248 10242 10237 10233 10228 10223 10216 10210 10205 10200 10195 10190 10185 10181 10176 10170 10165 10160 10158 10157 10155 10152 10147 10140 10134 10130 10128 10127 10126 10124 10121 10118 10116 10114 10113 10110 10108 10105 10103 10101 10098 10097 10095 10093 10091 10090 10088 10086 10085 10084 10083 10083 10082 10082 10081 10080 10080 10079 10079 10078 10078 10078 10078 10078 10079 10080 10080 10080 10080 10080 10080 10080 10080 10080 10080 10080 10081
10281 10277 10272 10267 10261 10257 10252 10248 10243 10238 10232 10226 10221 10216 10210 10204 10198 10193 10189 10185 10180 10175 10170 10166 10160 10155 10151 10148 10148 10147 10143 10138 10132 10125 10122 10120 10119 10118 10117 10113 10110 10108 10106 10105 10103 10100 10098 10096 10094 10092 10090 10088 10086 10084 10083 10081 10080 10078 10078 10077 10076 10075 10075 10074 10073 10073 10073 10072 10072 10072 10072 10072 10072 10072 10072 10073 10073 10073 10073 10073 10073 10073 10073 10073 10073 10074
10272 10267 10263 10257 10252 10247 10242 10237 10232 10227 10221 10215 10210 10204 10198 10193 10187 10182 10178 10173 10169 10165 10161 10156 10151 10146 10142 10139 10138 10138 10136 10130 10123 10118 10114 10112 10110 10110 10109 10107 10103 10100 10098 10097 10095 10093 10090 10088 10087 10085 10083 10082 10080 10078 10077 10075 10073 10073 10072 10071 10070 10069 10068 10068 10067 10067 10066 10066 10065 10065 10065 10065 10065 10065 10065 10065 10066 10066 10066 10066 10066 10066 10067 10067 10067 10067
10262 10257 10253 10248 10242 10237 10231 10226 10221 10215 10210 10204 10198 10193 10187 10182 10177 10172 10168 10163 10160 10156 10152 10147 10143 10138 10133 10130 10128 10128 10127 10123 10117 10110 10107 10103 10102 10102 10102 10100 10097 10093 10091 10089 10087 10085 10083 10082 10080 10078 10077 10075 10073 10072 10070 10069 10068 10067 10066 10065 10064 10063 10062 10062 10061 10060 10060 10060 10060 10059 10058 10058 10058 10058 10058 10058 10059 10059 10059 10059 10059 10060 10060 10060 10060 10061
10253 10247 10242 10237 10232 10226 10220 10214 10209 10204 10198 10192 10187 10181 10176 10170 10166 10162 10158 10154 10150 10147 10143 10138 10134 10130 10127 10122 10120 10118 10118 10115 10110 10104 10100 10096 10094 10094 10094 10093 10090 10087 10084 10082 10080 10078 10077 10075 10073 10072 10070 10068 10067 10065 10064 10063 10062 10061 10060 10059 10058 10057 10057 10056 10055 10055 10054 10054 10053 10053 10053 10052 10052 10052 10052 10052 10052 10053 10053 10053 10053 10053 10053 10053 10054 10055
10242 10237 10232 10227 10222 10215 10208 10202 10197 10193 10188 10182 10176 10171 10165 10160 10156 10152 10148 10145 10142 10138 10134 10130 10126 10122 10119 10116 10112 10110 10110 10107 10103 10098 10093 10089 10087 10087 10087 10087 10084 10081 10078 10076 10074 10072 10070 10068 10067 10065 10064 10062 10061 10060 10058 10057 10057 10055 10054 10053 10052 10052 10051 10050 10050 10049 10048 10048 10048 10047 10047 10046 10046 10046 10046 10046 10046 10047 10047 10047 10047 10047 10047 10047 10048 10048
10232 10225 10220 10215 10211 10206 10198 10192 10186 10182 10177 10172 10167 10162 10156 10151 10147 10143 10139 10136 10132 10129 10126 10122 10118 10115 10112 10108 10105 10103 10102 10100 10096 10091 10087 10083 10080 10080 10081 10080 10078 10075 10072 10070 10068 10067 10065 10063 10061 10059 10058 10057 10055 10054 10053 10052 10051 10050 10048 10048 10047 10046 10045 10045 10044 10043 10043 10043 10042 10042 10041 10040 10040 10040 10040 10040 10040 10040 10040 10041 10041 10041 10041 10042 10042 10042
10222 10215 10208 10204 10200 10195 10189 10182 10177 10171 10167 10162 10157 10152 10147 10142 10138 10134 10130 10127 10124 10121 10117 10114 10110 10107 10104 10102 10098 10096 10095 10092 10089 10084 10080 10076 10074 10073 10075 10074 10072 10068 10066 10064 10062 10061 10059 10057 10055 10053 10052 10051 10050 10048 10048 10047 10045 10044 10043 10042 10042 10040 10040 10039 10039 10038 10038 10037 10037 10037 10036 10035 10035 10035 10035 10035 10035 10035 10035 10035 10035 10035 10035 10035 10036 10036
10213 10207 10200 10194 10190 10185 10180 10173 10167 10162 10157 10153 10148 10143 10138 10134 10130 10126 10122 10120 10117 10113 10109 10105 10102 10100 10097 10095 10092 10090 10088 10085 10082 10078 10074 10070 10068 10067 10068 10068 10066 10063 10060 10058 10057 10055 10054 10052 10050 10048 10047 10045 10045 10043 10042 10042 10040 10039 10038 10037 10036 10035 10035 10034 10033 10033 10033 10032 10032 10031 10030 10030 10030 10030 10029 10029 10029 10029 10029 10029 10030 10030 10030 10030 10030 10030
10203 10197 10191 10185 10180 10175 10170 10164 10158 10153 10148 10144 10140 10135 10130 10127 10123 10119 10115 10112 10109 10105 10102 10098 10095 10092 10090 10088 10086 10084 10082 10080 10076 10072 10068 10065 10062 10062 10063 10062 10060 10057 10055 10053 10052 10050 10048 10047 10045 10043 10042 10040 10040 10038 10037 10037 10035 10034 10033 10032 10031 10030 10030 10029 10029 10028 10028 10027 10027 10026 10026 10025 10025 10025 10024 10024 10024 10024 10024 10024 10024 10024 10025 10025 10025 10025
10193 10188 10182 10177 10171 10166 10161 10155 10150 10145 10140 10136 10132 10127 10123 10120 10115 10112 10108 10105 10102 10098 10094 10091 10087 10085 10082 10081 10080 10078 10077 10074 10071 10067 10063 10060 10057 10056 10057 10056 10054 10052 10049 10047 10046 10045 10043 10042 10040 10038 10037 10035 10035 10033 10033 10032 10030 10029 10028 10027 10027 10026 10025 10025 10024 10023 10023 10022 10022 10022 10021 10020 10020 10020 10020 10019 10019 10019 10019 10019 10019 10019 10019 10019 10020 10020
10184 10178 10173 10168 10163 10157 10152 10147 10142 10137 10133 10129 10125 10121 10116 10112 10107 10103 10100 10097 10095 10092 10088 10084 10081 10078 10075 10074 10073 10072 10070 10069 10066 10062 10058 10055 10052 10051 10051 10050 10048 10046 10043 10042 10041 10040 10038 10037 10035 10033 10032 10031 10030 10029 10028 10027 10026 10025 10023 10023 10022 10021 10020 10020 10019 10018 10018 10018 10017 10017 10016 10016 10015 10015 10015 10015 10014 10014 10014 10014 10014 10014 10014 10014 10014 10015
10175 10170 10165 10159 10154 10149 10144 10139 10134 10130 10126 10122 10117 10113 10108 10104 10100 10096 10093 10090 10087 10085 10081 10078 10075 10072 10069 10067 10066 10065 10065 10063 10061 10057 10054 10051 10048 10047 10046 10045 10043 10041 10038 10037 10036 10035 10034 10032 10030 10028 10027 10026 10025 10025 10023 10022 10021 10020 10019 10018 10017 10017 10016 10015 10015 10014 10013 10013 10013 10012 10012 10012 10011 10010 10010 10010 10010 10009 10009 10009 10009 10009 10009 10009 10010 10010
10165 10160 10155 10151 10146 10140 10135 10130 10126 10122 10118 10114 10110 10106 10102 10098 10093 10090 10086 10083 10080 10078 10075 10072 10069 10066 10063 10061 10060 10059 10058 10058 10055 10053 10050 10047 10045 10042 10042 10040 10038 10037 10034 10032 10032 10031 10030 10028 10026 10025 10023 10022 10021 10020 10019 10018 10017 10016 10015 10014 10013 10012 10012 10011 10010 10010 10009 10008 10008 10008 10007 10007 10007 10006 10005 10005 10005 10005 10005 10005 10004 10004 10004 10005 10005 10005
10156 10151 10147 10142 10137 10132 10127 10123 10118 10114 10110 10107 10103 10099 10095 10092 10088 10083 10080 10077 10074 10072 10068 10066 10063 10060 10058 10055 10054 10053 10053 10052 10050 10048 10045 10043 10041 10039 10038 10037 10035 10032 10030 10028 10027 10027 10026 10025 10022 10020 10019 10018 10017 10017 10015 10014 10013 10012 10011 10010 10010 10008 10007 10007 10006 10005 10005 10004 10004 10003 10003 10003 10002 10002 10001 10001 10000 10000 10000 10000 10000 10000 10000 10000 10000 10001
10147 10142 10138 10133 10129 10124 10119 10115 10110 10107 10103 10100 10096 10092 10088 10085 10082 10078 10075 10072 10068 10066 10063 10060 10058 10055 10053 10050 10048 10047 10047 10047 10045 10043 10040 10038 10037 10035 10034 10033 10031 10028 10027 10024 10023 10022 10022 10021 10019 10017 10015 10014 10013 10012 10011 10010 10009 10008 10007 10007 10005 10005 10003 10003 10002 10002 10001 10000 10000 9999 9998 9998 9998 9998 9997 9997 9997 9996 9996 9996 9996 9996 9996 9996 9996 9997
10138 10133 10129 10125 10120 10116 10112 10107 10103 10100 10096 10092 10089 10086 10082 10079 10076 10072 10069 10066 10063 10061 10058 10055 10053 10050 10048 10045 10043 10042 10040 10040 10040 10038 10036 10034 10032 10031 10030 10028 10027 10025 10023 10021 10019 10018 10018 10018 10017 10014 10012 10010 10009 10008 10007 10006 10005 10004 10003 10003 10002 10001 10000 9999 9998 9997 9997 9997 9996 9995 9995 9994 9994 9993 9993 9993 9992 9992 9992 9992 9992 9992 9992 9992 9992 9992
10129 10125 10120 10117 10112 10108 10104 10100 10096 10092 10089 10086 10082 10079 10076 10073 10070 10067 10064 10061 10058 10056 10053 10050 10048 10045 10043 10041 10038 10037 10035 10035 10034 10033 10031 10030 10028 10026 10026 10024 10022 10021 10019 10017 10015 10014 10013 10013 10013 10012 10009 10007 10005 10004 10003 10002 10001 10000 10000 9998 9998 9997 9997 9995 9995 9994 9993 9993 9992 9991 9990 9990 9990 9990 9989 9989 9988 9988 9988 9988 9988 9988 9987 9988 9988 9988
10121 10117 10113 10108 10104 10100 10097 10093 10089 10086 10082 10079 10076 10073 10070 10067 10065 10062 10059 10057 10053 10051 10048 10046 10043 10041 10039 10037 10035 10032 10030 10030 10028 10027 10026 10025 10023 10022 10021 10020 10018 10017 10015 10014 10012 10011 10009 10008 10009 10008 10007 10005 10002 10001 10000 9998 9997 9997 9996 9995 9994 9993 9993 9992 9991 9990 9990 9989 9988 9988 9987 9987 9986 9986 9985 9985 9985 9985 9984 9984 9984 9984 9983 9984 9984 9984
10113 10109 10105 10101 10097 10093 10089 10086 10083 10079 10076 10073 10070 10067 10064 10062 10059 10057 10054 10052 10049 10047 10044 10042 10040 10037 10035 10032 10030 10028 10027 10025 10024 10023 10022 10020 10018 10017 10017 10015 10014 10013 10012 10010 10008 10007 10006 10005 10004 10004 10003 10002 10000 9998 9997 9995 9994 9993 9992 9991 9990 9990 9988 9988 9987 9987 9986 9986 9985 9984 9983 9983 9983 9982 9982 9982 9982 9981 9981 9981 9980 9980 9980 9980 9980 9980
10106 10102 10098 10094 10090 10086 10082 10079 10076 10073 10070 10067 10064 10061 10058 10056 10053 10051 10049 10047 10045 10042 10040 10038 10035 10033 10031 10028 10026 10023 10022 10021 10020 10018 10017 10016 10015 10013 10012 10011 10010 10009 10007 10006 10005 10003 10002 10002 10000 10000 9999 9998 9997 9996 9994 9992 9990 9990 9988 9988 9987 9986 9985 9984 9983 9983 9983 9982 9982 9981 9980 9980 9979 9979 9978 9978 9978 9978 9978 9977 9977 9977 9977 9977 9977 9977
10098 10095 10091 10087 10083 10079 10076 10073 10070 10067 10065 10062 10058 10056 10053 10050 10048 10046 10043 10042 10040 10038 10035 10033 10032 10030 10027 10025 10022 10020 10018 10017 10015 10015 10013 10012 10011 10009 10008 10007 10006 10005 10003 10002 10001 10000 9999 9998 9997 9996 9995 9995 9993 9993 9992 9990 9988 9987 9985 9985 9984 9983 9982 9980 9980 9980 9979 9979 9978 9978 9977 9977 9976 9976 9975 9975 9975 9975 9975 9974 9974 9973 9973 9973 9974 9974
10092 10088 10084 10080 10077 10073 10070 10067 10064 10062 10059 10056 10053 10051 10048 10046 10043 10041 10039 10037 10035 10033 10031 10029 10027 10025 10023 10022 10019 10017 10014 10013 10012 10010 10010 10008 10007 10006 10004 10003 10002 10001 10000 9998 9997 9997 9995 9994 9993 9993 9992 9990 9990 9989 9988 9987 9985 9984 9983 9982 9981 9980 9978 9978 9977 9976 9976 9975 9975 9975 9974 9973 9973 9973 9972 9972 9972 9972 9972 9971 9971 9970 9970 9970 9970 9970
10085 10082 10078 10075 10071 10067 10064 10061 10058 10056 10053 10051 10048 10046 10043 10041 10039 10037 10035 10032 10030 10028 10027 10025 10023 10022 10020 10018 10015 10013 10011 10009 10007 10007 10005 10005 10004 10003 10001 10000 9998 9998 9997 9995 9994 9993 9992 9991 9990 9989 9988 9987 9986 9985 9984 9983 9983 9982 9980 9979 9978 9977 9976 9975 9974 9973 9973 9972 9972 9972 9972 9971 9970 9970 9970 9969 9969 9968 9968 9968 9968 9968 9967 9967 9967 9967
10079 10076 10072 10069 10065 10062 10059 10056 10053 10051 10048 10046 10043 10042 10039 10037 10035 10032 10030 10028 10027 10025 10022 10020 10019 10017 10016 10014 10012 10010 10008 10006 10004 10003 10002 10001 10000 9999 9998 9996 9995 9994 9993 9992 9991 9990 9988 9988 9987 9985 9984 9983 9982 9982 9980 9980 9979 9978 9977 9977 9976 9975 9974 9973 9972 9970 9970 9970 9969 9969 9968 9968 9968 9967 9967 9967 9966 9966 9965 9965 9965 9965 9964 9964 9964 9964
10073 10070 10067 10063 10060 10057 10054 10051 10048 10045 10043 10041 10039 10037 10035 10032 10030 10028 10027 10025 10023 10020 10018 10017 10015 10013 10012 10010 10008 10007 10005 10003 10001 9999 9998 9997 9997 9996 9995 9993 9992 9991 9990 9989 9988 9987 9986 9985 9983 9982 9981 9980 9979 9978 9978 9977 9975 9975 9973 9973 9973 9972 9972 9970 9969 9968 9967 9967 9967 9966 9966 9965 9965 9965 9964 9963 9963 9963 9963 9962 9962 9962 9962 9961 9961 9961
10068 10064 10061 10058 10055 10052 10049 10047 10043 10041 10038 10036 10034 10032 10030 10028 10026 10023 10022 10020 10018 10017 10015 10013 10011 10010 10008 10007 10005 10003 10002 10000 9998 9996 9995 9993 9993 9992 9992 9990 9989 9988 9987 9986 9985 9984 9983 9982 9980 9979 9978 9977 9976 9975 9975 9974 9973 9972 9971 9970 9970 9969 9969 9968 9967 9966 9965 9965 9964 9963 9963 9963 9962 9962 9962 9961 9961 9960 9960 9959 9959 9958 9958 9958 9958 9957
10062 10059 10056 10053 10050 10047 10045 10042 10039 10037 10034 10032 10030 10027 10025 10023 10021 10019 10018 10016 10015 10013 10012 10009 10007 10006 10004 10003 10002 10000 9999 9997 9995 9993 9992 9990 9989 9988 9988 9987 9986 9985 9983 9983 9982 9981 9980 9979 9978 9977 9975 9974 9973 9972 9972 9971 9970 9970 9968 9967 9967 9966 9966 9966 9965 9964 9963 9962 9962 9961 9960 9960 9960 9959 9959 9958 9958 9958 9957 9957 9956 9956 9955 9955 9955 9955
10057 10053 10051 10048 10045 10042 10040 10037 10035 10032 10030 10028 10025 10023 10021 10019 10017 10015 10013 10012 10010 10009 10008 10006 10004 10002 10001 10000 9998 9997 9996 9994 9992 9990 9988 9987 9986 9985 9985 9984 9983 9982 9981 9980 9979 9978 9978 9977 9975 9974 9973 9972 9971 9970 9969 9968 9968 9967 9967 9965 9964 9963 9963 9963 9963 9962 9961 9960 9959 9958 9958 9958 9957 9957 9957 9956 9956 9955 9955 9954 9953 9953 9952 9952 9952 9952
10052 10048 10046 10043 10040 10038 10035 10033 10030 10028 10026 10023 10022 10019 10017 10015 10013 10011 10009 10007 10006 10005 10003 10002 10000 9998 9997 9996 9995 9994 9993 9992 9990 9988 9986 9984 9983 9982 9982 9981 9980 9979 9978 9977 9977 9975 9975 9974 9973 9972 9970 9969 9968 9967 9967 9966 9965 9965 9964 9963 9962 9962 9961 9960 9960 9960 9959 9958 9957 9957 9956 9955 9955 9955 9954 9953 9953 9953 9952 9952 9951 9950 9950 9949 9948 9948
10047 10044 10041 10038 10036 10033 10031 10028 10026 10023 10022 10019 10017 10015 10013 10011 10008 10007 10005 10003 10002 10000 9999 9998 9996 9995 9993 9992 9992 9991 9990 9988 9987 9985 9983 9982 9980 9979 9978 9978 9977 9977 9976 9975 9974 9973 9972 9972 9970 9969 9968 9967 9966 9965 9964 9963 9963 9962 9962 9961 9960 9960 9958 9958 9957 9957 9957 9956 9955 9955 9954 9953 9953 9952 9952 9952 9951 9950 9950 9949 9948 9948 9947 9947 9946 9945
10042 10039 10037 10034 10032 10029 10027 10024 10022 10019 10017 10015 10013 10011 10008 10007 10005 10003 10000 9998 9997 9996 9995 9993 9992 9991 9990 9988 9988 9987 9986 9985 9984 9983 9981 9979 9977 9976 9975 9975 9975 9974 9973 9973 9972 9971 9970 9969 9968 9967 9966 9965 9964 9963 9962 9961 9960 9960 9960 9959 9958 9957 9957 9956 9955 9955 9954 9953 9953 9952 9952 9952 9951 9950 9950 9949 9948 9948 9947 9947 9946 9945 9945 9944 9943 9943
10038 10035 10032 10030 10027 10025 10022 10020 10017 10015 10013 10010 10008 10007 10004 10002 10000 9998 9997 9995 9993 9992 9990 9989 9988 9987 9985 9985 9983 9983 9982 9982 9981 9980 9978 9976 9975 9973 9973 9972 9972 9972 9971 9970 9970 9969 9968 9967 9966 9965 9964 9963 9962 9962 9960 9959 9958 9958 9957 9957 9956 9955 9955 9954 9953 9952 9952 9951 9951 9950 9950 9950 9949 9948 9948 9947 9947 9945 9945 9944 9943 9943 9942 9942 9941 9940
10034 10031 10028 10025 10023 10020 10018 10015 10013 10010 10008 10006 10004 10002 10000 9998 9996 9994 9992 9990 9989 9987 9986 9985 9984 9983 9982 9981 9980 9979 9978 9978 9977 9977 9975 9973 9972 9971 9970 9970 9969 9969 9968 9968 9967 9967 9966 9965 9963 9963 9962 9961 9960 9960 9959 9958 9957 9956 9955 9955 9954 9953 9953 9952 9952 9951 9950 9950 9949 9948 9948 9947 9947 9947 9946 9945 9944 9943 9943 9942 9941 9940 9940 9939 9938 9937
10030 10027 10024 10021 10018 10016 10013 10010 10008 10005 10003 10001 9999 9997 9995 9993 9992 9990 9988 9986 9985 9983 9982 9981 9980 9979 9978 9977 9976 9975 9975 9974 9974 9973 9972 9971 9970 9968 9968 9967 9967 9967 9967 9966 9965 9965 9963 9962 9962 9960 9960 9959 9958 9958 9957 9957 9955 9954 9953 9953 9952 9952 9951 9950 9950 9949 9948 9948 9947 9947 9946 9945 9945 9944 9943 9943 9942 9942 9940 9940 9939 9938 9937 9937 9936 9935
10027 10023 10020 10017 10014 10012 10009 10006 10003 10001 9998 9997 9995 9993 9991 9989 9987 9985 9983 9982 9981 9980 9978 9977 9976 9975 9974 9973 9973 9972 9972 9971 9970 9970 9969 9968 9967 9966 9965 9965 9965 9964 9964 9964 9963 9962 9962 9960 9960 9958 9958 9957 9957 9956 9955 9955 9954 9953 9952 9952 9950 9950 9950 9949 9948 9948 9947 9947 9946 9945 9945 9944 9943 9942 9942 9941 9940 9939 9938 9938 9937 9936 9935 9934 9933 9933
10022 10019 10016 10013 10010 10007 10005 10002 10000 9997 9995 9992 9990 9988 9987 9985 9983 9982 9980 9978 9977 9976 9975 9973 9973 9972 9971 9970 9970 9969 9968 9968 9967 9967 9966 9965 9964 9963 9963 9963 9962 9962 9962 9962 9961 9960 9960 9958 9958 9957 9956 9955 9955 9954 9953 9953 9952 9952 9951 9950 9949 9948 9948 9947 9947 9947 9946 9945 9944 9943 9943 9942 9942 9940 9940 9939 9938 9937 9937 9935 9935 9933 9933 9932 9931 9930
10018 10015 10012 10009 10006 10003 10000 9998 9995 9993 9990 9988 9986 9984 9982 9981 9979 9978 9976 9975 9973 9972 9971 9970 9969 9968 9968 9967 9967 9966 9965 9965 9964 9963 9963 9962 9962 9961 9961 9961 9960 9960 9960 9960 9959 9958 9958 9957 9956 9955 9954 9953 9953 9952 9952 9951 9950 9950 9950 9948 9948 9947 9947 9946 9945 9945 9944 9943 9943 9942 9942 9940 9940 9939 9938 9937 9936 9935 9935 9933 9933 9932 9931 9930 9929 9928